Location: Hackberry
(29.5783°N, 96.8797°W)
Time: 00:43:49
(UTC+00:00)

Courier 1B - Pass Details

Date: 15 November 2024
Orbit: 962 x 1208 km, 28.3° (Epoch: 03 December)

Event Time Altitude Azimuth Distance (km) Brightness Sun altitude
Rises 01:33:42 0° 274° (W) 3,640 11.8 -26.4°
Reaches altitude 10° 01:36:37 10° 263° (W) 2,706 10.8 -27.0°
Maximum altitude 01:42:12 30° 204° (SSW) 1,680 8.9 -28.2°
Enters shadow 01:45:10 22° 164° (SSE) 2,046 9.1 -28.9°
